START_TIME,STEP,MOV.,P11,t_acc.,P23,t_acc.,P27,t_acc.,A4,t_acc.
1986-01-26 12:00:24.400 ,0,0,5.,4.8,0.,4.8,0.,4.8,0.,4.8
1986-01-26 12:00:29.200 ,0,0,8.,4.8,0.,4.8,0.,4.8,0.,4.8
1986-01-26 12:00:34.000 ,0,0,10.,4.8,0.,4.8,0.,4.8,0.,4.8
1986-01-26 12:00:38.800 ,0,0,8.,4.8,0.,4.8,0.,4.8,0.,4.8
1986-01-26 12:00:43.600 ,0,0,6.,4.8,0.,4.8,0.,4.8,0.,4.8
1986-01-26 12:00:48.390 ,0,0,17.,4.8,0.,4.8,0.,4.8,0.,4.8
1986-01-26 12:00:53.190 ,0,0,6.,4.8,0.,4.8,0.,4.8,0.,4.8
1986-01-26 12:00:58.000 ,0,0,14.,4.8,0.,4.8,0.,4.8,0.,4.8
1986-01-26 12:01:02.800 ,0,0,5.,4.8,0.,4.8,0.,4.8,0.,4.8
1986-01-26 12:01:07.600 ,0,0,4.,4.8,0.,4.8,0.,4.8,0.,4.8
1986-01-26 12:01:12.390 ,0,0,6.,4.8,0.,4.8,0.,4.8,0.,4.8
1986-01-26 12:01:17.190 ,0,0,7.,4.8,0.,4.8,0.,4.8,0.,4.8
1986-01-26 12:01:22.000 ,0,0,9.,4.8,0.,4.8,0.,4.8,0.,4.8
1986-01-26 12:01:26.800 ,0,0,7.,4.8,0.,4.8,0.,4.8,0.,4.8
1986-01-26 12:01:31.600 ,0,0,5.,4.8,0.,4.8,0.,4.8,0.,4.8
1986-01-26 12:01:36.390 ,1,0,7.,4.8,0.,4.8,0.,4.8,0.,4.8
1986-01-26 12:01:41.190 ,1,0,10.,4.8,0.,4.8,0.,4.8,0.,4.8
1986-01-26 12:01:46.000 ,1,0,10.,4.8,0.,4.8,0.,4.8,0.,4.8
1986-01-26 12:01:50.800 ,1,0,12.,4.8,0.,4.8,0.,4.8,0.,4.8
1986-01-26 12:01:55.600 ,1,0,14.,4.8,0.,4.8,0.,4.8,0.,4.8
1986-01-26 12:02:00.390 ,1,0,11.,4.8,0.,4.8,0.,4.8,0.,4.8
1986-01-26 12:02:05.190 ,1,0,5.,4.8,0.,4.8,0.,4.8,0.,4.8
1986-01-26 12:02:09.990 ,1,0,5.,4.8,0.,4.8,0.,4.8,0.,4.8
1986-01-26 12:02:14.800 ,1,0,13.,4.8,0.,4.8,0.,4.8,0.,4.8
1986-01-26 12:02:19.600 ,1,0,10.,4.8,0.,4.8,0.,4.8,0.,4.8
1986-01-26 12:02:24.400 ,2,0,11.,4.8,0.,4.8,0.,4.8,0.,4.8
1986-01-26 12:02:29.200 ,2,0,13.,4.8,0.,4.8,0.,4.8,0.,4.8
1986-01-26 12:02:34.000 ,2,0,7.,4.8,0.,4.8,0.,4.8,0.,4.8
1986-01-26 12:02:38.800 ,2,0,8.,4.8,0.,4.8,0.,4.8,0.,4.8
1986-01-26 12:02:43.600 ,2,0,11.,4.8,0.,4.8,0.,4.8,0.,4.8
1986-01-26 12:02:48.400 ,2,0,3.,4.8,0.,4.8,0.,4.8,0.,4.8
1986-01-26 12:02:53.200 ,2,0,10.,4.8,0.,4.8,0.,4.8,0.,4.8
1986-01-26 12:02:58.000 ,2,0,11.,4.8,0.,4.8,0.,4.8,0.,4.8
1986-01-26 12:03:02.800 ,2,0,6.,4.8,0.,4.8,0.,4.8,0.,4.8
1986-01-26 12:03:07.600 ,2,0,8.,4.8,0.,4.8,0.,4.8,0.,4.8
1986-01-26 12:03:12.400 ,3,0,5.,4.8,0.,4.8,0.,4.8,0.,4.8
1986-01-26 12:03:17.200 ,3,0,7.,4.8,0.,4.8,0.,4.8,0.,4.8
1986-01-26 12:03:22.000 ,3,0,16.,4.8,0.,4.8,0.,4.8,0.,4.8
1986-01-26 12:03:26.800 ,3,0,9.,4.8,0.,4.8,0.,4.8,0.,4.8
1986-01-26 12:03:31.600 ,3,0,9.,4.8,0.,4.8,0.,4.8,0.,4.8
1986-01-26 12:03:36.400 ,3,0,7.,4.8,0.,4.8,0.,4.8,0.,4.8
1986-01-26 12:03:41.190 ,3,0,8.,4.8,0.,4.8,0.,4.8,0.,4.8
1986-01-26 12:03:45.990 ,3,0,14.,4.8,0.,4.8,0.,4.8,0.,4.8
1986-01-26 12:03:50.800 ,3,0,9.,4.8,0.,4.8,0.,4.8,0.,4.8
1986-01-26 12:03:55.600 ,3,0,3.,4.8,0.,4.8,0.,4.8,0.,4.8
1986-01-26 12:04:00.400 ,4,0,2.,4.8,0.,4.8,0.,4.8,0.,4.8
1986-01-26 12:04:05.200 ,4,0,7.,4.8,0.,4.8,0.,4.8,0.,4.8
1986-01-26 12:04:09.990 ,4,0,9.,4.8,0.,4.8,0.,4.8,0.,4.8
1986-01-26 12:04:14.800 ,4,0,6.,4.8,0.,4.8,0.,4.8,0.,4.8
1986-01-26 12:04:19.600 ,4,0,6.,4.8,0.,4.8,0.,4.8,0.,4.8
1986-01-26 12:04:24.400 ,4,0,7.,4.8,0.,4.8,0.,4.8,0.,4.8
1986-01-26 12:04:29.200 ,4,0,4.,4.8,0.,4.8,0.,4.8,0.,4.8
1986-01-26 12:04:34.000 ,4,0,7.,4.8,0.,4.8,0.,4.8,0.,4.8
1986-01-26 12:04:38.800 ,4,0,6.,4.8,0.,4.8,0.,4.8,0.,4.8
1986-01-26 12:04:43.600 ,4,0,7.,4.8,0.,4.8,0.,4.8,0.,4.8
1986-01-26 12:04:48.400 ,5,0,5.,4.8,0.,4.8,0.,4.8,0.,4.8
1986-01-26 12:04:53.200 ,5,0,6.,4.8,0.,4.8,0.,4.8,0.,4.8
1986-01-26 12:04:58.000 ,5,0,6.,4.8,0.,4.8,0.,4.8,0.,4.8
1986-01-26 12:05:02.800 ,5,0,12.,4.8,0.,4.8,0.,4.8,0.,4.8
1986-01-26 12:05:07.600 ,5,0,9.,4.8,0.,4.8,0.,4.8,0.,4.8
1986-01-26 12:05:12.400 ,5,0,11.,4.8,0.,4.8,0.,4.8,0.,4.8
1986-01-26 12:05:17.200 ,5,0,4.,4.8,0.,4.8,0.,4.8,0.,4.8
1986-01-26 12:05:22.000 ,5,0,12.,4.8,0.,4.8,0.,4.8,0.,4.8
1986-01-26 12:05:26.800 ,5,0,9.,4.8,0.,4.8,0.,4.8,0.,4.8
1986-01-26 12:05:31.600 ,5,0,7.,4.8,0.,4.8,0.,4.8,0.,4.8
1986-01-26 12:05:36.400 ,6,0,6.,4.8,0.,4.8,0.,4.8,0.,4.8
1986-01-26 12:05:41.200 ,6,0,8.,4.8,0.,4.8,0.,4.8,0.,4.8
1986-01-26 12:05:46.000 ,6,0,6.,4.8,0.,4.8,0.,4.8,0.,4.8
1986-01-26 12:05:50.800 ,6,0,11.,4.8,0.,4.8,0.,4.8,0.,4.8
1986-01-26 12:05:55.600 ,6,0,7.,4.8,0.,4.8,0.,4.8,0.,4.8
1986-01-26 12:06:00.400 ,6,0,9.,4.8,0.,4.8,0.,4.8,0.,4.8
1986-01-26 12:06:05.200 ,6,0,7.,4.8,0.,4.8,0.,4.8,0.,4.8
1986-01-26 12:06:10.000 ,6,0,2.,4.8,0.,4.8,0.,4.8,0.,4.8
1986-01-26 12:06:14.800 ,6,0,7.,4.8,0.,4.8,0.,4.8,0.,4.8
1986-01-26 12:06:19.600 ,6,0,8.,4.8,0.,4.8,0.,4.8,0.,4.8
1986-01-26 12:06:24.400 ,7,0,10.,4.8,0.,4.8,0.,4.8,0.,4.8
1986-01-26 12:06:29.200 ,7,0,11.,4.8,0.,4.8,0.,4.8,0.,4.8
1986-01-26 12:06:34.000 ,7,0,9.,4.8,0.,4.8,0.,4.8,0.,4.8
1986-01-26 12:06:38.800 ,7,0,6.,4.8,0.,4.8,0.,4.8,0.,4.8
1986-01-26 12:06:43.600 ,7,0,4.,4.8,0.,4.8,0.,4.8,0.,4.8
1986-01-26 12:06:48.400 ,7,0,9.,4.8,0.,4.8,0.,4.8,0.,4.8
1986-01-26 12:06:53.200 ,7,0,5.,4.8,0.,4.8,0.,4.8,0.,4.8
1986-01-26 12:06:58.000 ,7,0,10.,4.8,0.,4.8,0.,4.8,0.,4.8
1986-01-26 12:07:02.800 ,7,0,9.,4.8,0.,4.8,0.,4.8,0.,4.8
1986-01-26 12:07:07.600 ,7,0,8.,4.8,0.,4.8,0.,4.8,0.,4.8
1986-01-26 12:07:12.400 ,7,0,8.,4.8,0.,4.8,0.,4.8,0.,4.8
1986-01-26 12:07:17.200 ,7,0,10.,4.8,0.,4.8,0.,4.8,0.,4.8
1986-01-26 12:07:22.000 ,7,0,7.,4.8,0.,4.8,0.,4.8,0.,4.8
1986-01-26 12:07:26.800 ,7,0,3.,4.8,0.,4.8,0.,4.8,0.,4.8
1986-01-26 12:07:31.600 ,7,0,4.,4.8,0.,4.8,0.,4.8,0.,4.8
1986-01-26 12:07:36.400 ,7,0,3.,4.8,0.,4.8,0.,4.8,0.,4.8
1986-01-26 12:07:41.200 ,7,0,7.,4.8,0.,4.8,0.,4.8,0.,4.8
1986-01-26 12:07:46.000 ,7,0,13.,4.8,0.,4.8,0.,4.8,0.,4.8
1986-01-26 12:07:50.800 ,7,0,6.,4.8,0.,4.8,0.,4.8,0.,4.8
1986-01-26 12:07:55.600 ,7,0,8.,4.8,0.,4.8,0.,4.8,0.,4.8
1986-01-26 12:08:00.400 ,6,0,5.,4.8,0.,4.8,0.,4.8,0.,4.8
1986-01-26 12:08:05.200 ,6,0,8.,4.8,0.,4.8,0.,4.8,0.,4.8
1986-01-26 12:08:10.000 ,6,0,4.,4.8,0.,4.8,0.,4.8,0.,4.8
1986-01-26 12:08:14.800 ,6,0,6.,4.8,0.,4.8,0.,4.8,0.,4.8
1986-01-26 12:08:19.600 ,6,0,4.,4.8,0.,4.8,0.,4.8,0.,4.8
1986-01-26 12:08:24.400 ,6,0,4.,4.8,0.,4.8,0.,4.8,0.,4.8
1986-01-26 12:08:29.200 ,6,0,8.,4.8,0.,4.8,0.,4.8,0.,4.8
1986-01-26 12:08:33.990 ,6,0,8.,4.8,0.,4.8,0.,4.8,0.,4.8
1986-01-26 12:08:38.800 ,6,0,5.,4.8,0.,4.8,0.,4.8,0.,4.8
1986-01-26 12:08:43.600 ,6,0,6.,4.8,0.,4.8,0.,4.8,0.,4.8
1986-01-26 12:08:48.390 ,5,0,15.,4.8,0.,4.8,0.,4.8,0.,4.8
1986-01-26 12:08:53.200 ,5,0,6.,4.8,0.,4.8,0.,4.8,0.,4.8
1986-01-26 12:08:57.990 ,5,0,5.,4.8,0.,4.8,0.,4.8,0.,4.8
1986-01-26 12:09:02.790 ,5,0,7.,4.8,0.,4.8,0.,4.8,0.,4.8
1986-01-26 12:09:07.590 ,5,0,7.,4.8,0.,4.8,0.,4.8,0.,4.8
1986-01-26 12:09:12.390 ,5,0,5.,4.8,0.,4.8,0.,4.8,0.,4.8
1986-01-26 12:09:17.200 ,5,0,12.,4.8,0.,4.8,0.,4.8,0.,4.8
1986-01-26 12:09:21.990 ,5,0,8.,4.8,0.,4.8,0.,4.8,0.,4.8
1986-01-26 12:09:26.790 ,5,0,11.,4.8,0.,4.8,0.,4.8,0.,4.8
1986-01-26 12:09:31.590 ,5,0,5.,4.8,0.,4.8,0.,4.8,0.,4.8
1986-01-26 12:09:36.390 ,4,0,6.,4.8,0.,4.8,0.,4.8,0.,4.8
1986-01-26 12:09:41.200 ,4,0,7.,4.8,0.,4.8,0.,4.8,0.,4.8
1986-01-26 12:09:45.990 ,4,0,10.,4.8,0.,4.8,0.,4.8,0.,4.8
1986-01-26 12:09:50.790 ,4,0,8.,4.8,0.,4.8,0.,4.8,0.,4.8
1986-01-26 12:09:55.590 ,4,0,7.,4.8,0.,4.8,0.,4.8,0.,4.8
1986-01-26 12:10:00.390 ,4,0,5.,4.8,0.,4.8,0.,4.8,0.,4.8
1986-01-26 12:10:05.200 ,4,0,13.,4.8,0.,4.8,0.,4.8,0.,4.8
1986-01-26 12:10:09.990 ,4,0,7.,4.8,0.,4.8,0.,4.8,0.,4.8
1986-01-26 12:10:14.790 ,4,0,11.,4.8,0.,4.8,0.,4.8,0.,4.8
1986-01-26 12:10:19.590 ,4,0,6.,4.8,0.,4.8,0.,4.8,0.,4.8
1986-01-26 12:10:24.390 ,3,0,7.,4.8,0.,4.8,0.,4.8,0.,4.8
1986-01-26 12:10:29.190 ,3,0,9.,4.8,0.,4.8,0.,4.8,0.,4.8
1986-01-26 12:10:33.990 ,3,0,4.,4.8,0.,4.8,0.,4.8,0.,4.8
1986-01-26 12:10:38.790 ,3,0,7.,4.8,0.,4.8,0.,4.8,0.,4.8
1986-01-26 12:10:43.590 ,3,0,13.,4.8,0.,4.8,0.,4.8,0.,4.8
1986-01-26 12:10:48.390 ,3,0,8.,4.8,0.,4.8,0.,4.8,0.,4.8
1986-01-26 12:10:53.190 ,3,0,5.,4.8,0.,4.8,0.,4.8,0.,4.8
1986-01-26 12:10:57.990 ,3,0,6.,4.8,0.,4.8,0.,4.8,0.,4.8
1986-01-26 12:11:02.790 ,3,0,8.,4.8,0.,4.8,0.,4.8,0.,4.8
1986-01-26 12:11:07.590 ,3,0,10.,4.8,0.,4.8,0.,4.8,0.,4.8
1986-01-26 12:11:12.390 ,2,0,5.,4.8,0.,4.8,0.,4.8,0.,4.8
1986-01-26 12:11:17.190 ,2,0,5.,4.8,0.,4.8,0.,4.8,0.,4.8
1986-01-26 12:11:21.990 ,2,0,6.,4.8,0.,4.8,0.,4.8,0.,4.8
1986-01-26 12:11:26.790 ,2,0,9.,4.8,0.,4.8,0.,4.8,0.,4.8
1986-01-26 12:11:31.590 ,2,0,9.,4.8,0.,4.8,0.,4.8,0.,4.8
1986-01-26 12:11:36.390 ,2,0,5.,4.8,0.,4.8,0.,4.8,0.,4.8
1986-01-26 12:11:41.190 ,2,0,5.,4.8,0.,4.8,0.,4.8,0.,4.8
1986-01-26 12:11:45.990 ,2,0,7.,4.8,0.,4.8,0.,4.8,0.,4.8
1986-01-26 12:11:50.790 ,2,0,5.,4.8,0.,4.8,0.,4.8,0.,4.8
1986-01-26 12:11:55.590 ,2,0,15.,4.8,0.,4.8,0.,4.8,0.,4.8
1986-01-26 12:12:00.390 ,1,0,2.,4.8,0.,4.8,0.,4.8,0.,4.8
1986-01-26 12:12:05.190 ,1,0,4.,4.8,0.,4.8,0.,4.8,0.,4.8
1986-01-26 12:12:09.990 ,1,0,5.,4.8,0.,4.8,0.,4.8,0.,4.8
1986-01-26 12:12:14.790 ,1,0,4.,4.8,0.,4.8,0.,4.8,0.,4.8
1986-01-26 12:12:19.590 ,1,0,6.,4.8,0.,4.8,0.,4.8,0.,4.8
1986-01-26 12:12:24.390 ,1,0,4.,4.8,0.,4.8,0.,4.8,0.,4.8
1986-01-26 12:12:29.190 ,1,0,9.,4.8,0.,4.8,0.,4.8,0.,4.8
1986-01-26 12:12:33.990 ,1,0,7.,4.8,0.,4.8,0.,4.8,0.,4.8
1986-01-26 12:12:38.790 ,1,0,6.,4.8,0.,4.8,0.,4.8,0.,4.8
1986-01-26 12:12:43.590 ,1,0,9.,4.8,0.,4.8,0.,4.8,0.,4.8
1986-01-26 12:12:48.390 ,0,0,4.,4.8,0.,4.8,0.,4.8,0.,4.8
1986-01-26 12:12:53.190 ,0,0,7.,4.8,0.,4.8,0.,4.8,0.,4.8
1986-01-26 12:12:57.990 ,0,0,3.,4.8,0.,4.8,0.,4.8,0.,4.8
1986-01-26 12:13:02.790 ,0,0,9.,4.8,0.,4.8,0.,4.8,0.,4.8
1986-01-26 12:13:07.590 ,0,0,12.,4.8,0.,4.8,0.,4.8,0.,4.8
1986-01-26 12:13:12.390 ,0,0,7.,4.8,0.,4.8,0.,4.8,0.,4.8
1986-01-26 12:13:17.190 ,0,0,6.,4.8,0.,4.8,0.,4.8,0.,4.8
1986-01-26 12:13:21.990 ,0,0,7.,4.8,0.,4.8,0.,4.8,0.,4.8
1986-01-26 12:13:26.790 ,0,0,13.,4.8,0.,4.8,0.,4.8,0.,4.8
1986-01-26 12:13:31.590 ,0,0,7.,4.8,0.,4.8,0.,4.8,0.,4.8
1986-01-26 12:13:36.390 ,0,0,6.,4.8,0.,4.8,0.,4.8,0.,4.8
1986-01-26 12:13:41.190 ,0,0,5.,4.8,0.,4.8,0.,4.8,0.,4.8
1986-01-26 12:13:45.990 ,0,0,5.,4.8,0.,4.8,0.,4.8,0.,4.8
1986-01-26 12:13:50.790 ,0,0,2.,4.8,0.,4.8,0.,4.8,0.,4.8
1986-01-26 12:13:55.590 ,0,0,15.,4.8,0.,4.8,0.,4.8,0.,4.8
1986-01-26 12:14:00.390 ,0,0,6.,4.8,0.,4.8,0.,4.8,0.,4.8
1986-01-26 12:14:05.190 ,0,0,11.,4.8,0.,4.8,0.,4.8,0.,4.8
1986-01-26 12:14:09.990 ,0,0,5.,4.8,0.,4.8,0.,4.8,0.,4.8
1986-01-26 12:14:14.790 ,0,0,4.,4.8,0.,4.8,0.,4.8,0.,4.8
1986-01-26 12:14:19.590 ,0,0,10.,4.8,0.,4.8,0.,4.8,0.,4.8
1986-01-26 12:14:24.390 ,1,0,12.,4.8,0.,4.8,0.,4.8,0.,4.8
1986-01-26 12:14:29.190 ,1,0,7.,4.8,0.,4.8,0.,4.8,0.,4.8
1986-01-26 12:14:33.990 ,1,0,8.,4.8,0.,4.8,0.,4.8,0.,4.8
1986-01-26 12:14:38.790 ,1,0,5.,4.8,0.,4.8,0.,4.8,0.,4.8
1986-01-26 12:14:43.590 ,1,0,6.,4.8,0.,4.8,0.,4.8,0.,4.8
1986-01-26 12:14:48.390 ,1,0,6.,4.8,0.,4.8,0.,4.8,0.,4.8
1986-01-26 12:14:53.190 ,1,0,7.,4.8,0.,4.8,0.,4.8,0.,4.8
1986-01-26 12:14:57.990 ,1,0,7.,4.8,0.,4.8,0.,4.8,0.,4.8
1986-01-26 12:15:02.790 ,1,0,4.,4.8,0.,4.8,0.,4.8,0.,4.8
1986-01-26 12:15:07.590 ,1,0,8.,4.8,0.,4.8,0.,4.8,0.,4.8
1986-01-26 12:15:12.390 ,2,0,3.,4.8,0.,4.8,0.,4.8,0.,4.8
1986-01-26 12:15:17.190 ,2,0,10.,4.8,0.,4.8,0.,4.8,0.,4.8
1986-01-26 12:15:21.990 ,2,0,8.,4.8,0.,4.8,0.,4.8,0.,4.8
1986-01-26 12:15:26.790 ,2,0,13.,4.8,0.,4.8,0.,4.8,0.,4.8
1986-01-26 12:15:31.590 ,2,0,9.,4.8,0.,4.8,0.,4.8,0.,4.8
1986-01-26 12:15:36.390 ,2,0,9.,4.8,0.,4.8,0.,4.8,0.,4.8
1986-01-26 12:15:41.190 ,2,0,4.,4.8,0.,4.8,0.,4.8,0.,4.8
1986-01-26 12:15:45.990 ,2,0,6.,4.8,0.,4.8,0.,4.8,0.,4.8
1986-01-26 12:15:50.790 ,2,0,3.,4.8,0.,4.8,0.,4.8,0.,4.8
1986-01-26 12:15:55.590 ,2,0,5.,4.8,0.,4.8,0.,4.8,0.,4.8
1986-01-26 12:16:00.390 ,3,0,5.,4.8,0.,4.8,0.,4.8,0.,4.8
1986-01-26 12:16:05.190 ,3,0,5.,4.8,0.,4.8,0.,4.8,0.,4.8
1986-01-26 12:16:09.990 ,3,0,7.,4.8,0.,4.8,0.,4.8,0.,4.8
1986-01-26 12:16:14.790 ,3,0,5.,4.8,0.,4.8,0.,4.8,0.,4.8
1986-01-26 12:16:19.590 ,3,0,2.,4.8,0.,4.8,0.,4.8,0.,4.8
1986-01-26 12:16:24.390 ,3,0,5.,4.8,0.,4.8,0.,4.8,0.,4.8
1986-01-26 12:16:29.190 ,3,0,8.,4.8,0.,4.8,0.,4.8,0.,4.8
1986-01-26 12:16:33.990 ,3,0,12.,4.8,0.,4.8,0.,4.8,0.,4.8
1986-01-26 12:16:38.790 ,3,0,7.,4.8,0.,4.8,0.,4.8,0.,4.8
1986-01-26 12:16:43.590 ,3,0,8.,4.8,0.,4.8,0.,4.8,0.,4.8
1986-01-26 12:16:48.390 ,4,0,6.,4.8,0.,4.8,0.,4.8,0.,4.8
1986-01-26 12:16:53.190 ,4,0,5.,4.8,0.,4.8,0.,4.8,0.,4.8
1986-01-26 12:16:57.990 ,4,0,3.,4.8,0.,4.8,0.,4.8,0.,4.8
1986-01-26 12:17:02.790 ,4,0,6.,4.8,0.,4.8,0.,4.8,0.,4.8
1986-01-26 12:17:07.590 ,4,0,8.,4.8,0.,4.8,0.,4.8,0.,4.8
1986-01-26 12:17:12.390 ,4,0,2.,4.8,0.,4.8,0.,4.8,0.,4.8
1986-01-26 12:17:17.190 ,4,0,3.,4.8,0.,4.8,0.,4.8,0.,4.8
1986-01-26 12:17:21.990 ,4,0,12.,4.8,0.,4.8,0.,4.8,0.,4.8
1986-01-26 12:17:26.790 ,4,0,4.,4.8,0.,4.8,0.,4.8,0.,4.8
1986-01-26 12:17:31.590 ,4,0,8.,4.8,0.,4.8,0.,4.8,0.,4.8
1986-01-26 12:17:36.390 ,5,0,4.,4.8,0.,4.8,0.,4.8,0.,4.8
1986-01-26 12:17:41.190 ,5,0,9.,4.8,0.,4.8,0.,4.8,0.,4.8
1986-01-26 12:17:45.990 ,5,0,6.,4.8,0.,4.8,0.,4.8,0.,4.8
1986-01-26 12:17:50.790 ,5,0,9.,4.8,0.,4.8,0.,4.8,0.,4.8
1986-01-26 12:17:55.590 ,5,0,6.,4.8,0.,4.8,0.,4.8,0.,4.8
1986-01-26 12:18:00.390 ,0,0,8.,4.8,0.,4.8,0.,4.8,0.,4.8
1986-01-26 12:18:05.190 ,0,0,3.,4.8,0.,4.8,0.,4.8,0.,4.8
1986-01-26 12:18:09.990 ,0,0,6.,4.8,0.,4.8,0.,4.8,0.,4.8
1986-01-26 12:18:14.790 ,0,0,10.,4.8,0.,4.8,0.,4.8,0.,4.8
1986-01-26 12:18:19.590 ,0,0,9.,4.8,0.,4.8,0.,4.8,0.,4.8
1986-01-26 12:19:57.390 ,0,0,,0,,0,,0,,0
1986-01-26 12:20:02.190 ,0,0,,0,,0,,0,,0
1986-01-26 12:20:06.990 ,0,0,,0,,0,,0,,0
1986-01-26 12:20:11.790 ,0,0,,0,,0,,0,,0
1986-01-26 12:20:16.590 ,0,0,,0,,0,,0,,0
1986-01-26 12:20:00.390 ,7,0,7.,4.8,0.,4.8,0.,4.8,0.,4.8
1986-01-26 12:20:05.190 ,7,0,7.,4.8,0.,4.8,0.,4.8,0.,4.8
1986-01-26 12:20:09.990 ,7,0,5.,4.8,0.,4.8,0.,4.8,0.,4.8
1986-01-26 12:20:14.790 ,7,0,8.,4.8,0.,4.8,0.,4.8,0.,4.8
1986-01-26 12:20:19.590 ,7,0,5.,4.8,0.,4.8,0.,4.8,0.,4.8
1986-01-26 12:20:24.390 ,7,0,7.,4.8,0.,4.8,0.,4.8,0.,4.8
1986-01-26 12:20:29.190 ,7,0,4.,4.8,0.,4.8,0.,4.8,0.,4.8
1986-01-26 12:20:33.990 ,7,0,8.,4.8,0.,4.8,0.,4.8,0.,4.8
1986-01-26 12:20:38.790 ,7,0,4.,4.8,0.,4.8,0.,4.8,0.,4.8
1986-01-26 12:20:43.590 ,7,0,4.,4.8,0.,4.8,0.,4.8,0.,4.8
1986-01-26 12:20:48.390 ,6,0,2.,4.8,0.,4.8,0.,4.8,0.,4.8
1986-01-26 12:20:53.190 ,6,0,5.,4.8,0.,4.8,0.,4.8,0.,4.8
1986-01-26 12:20:57.990 ,6,0,11.,4.8,0.,4.8,0.,4.8,0.,4.8
1986-01-26 12:21:02.790 ,6,0,10.,4.8,0.,4.8,0.,4.8,0.,4.8
1986-01-26 12:21:07.590 ,6,0,7.,4.8,0.,4.8,0.,4.8,0.,4.8
1986-01-26 12:21:12.390 ,6,0,14.,4.8,0.,4.8,0.,4.8,0.,4.8
1986-01-26 12:21:17.190 ,6,0,6.,4.8,0.,4.8,0.,4.8,0.,4.8
1986-01-26 12:21:21.990 ,6,0,4.,4.8,0.,4.8,0.,4.8,0.,4.8
1986-01-26 12:21:26.790 ,6,0,8.,4.8,0.,4.8,0.,4.8,0.,4.8
1986-01-26 12:21:31.590 ,6,0,5.,4.8,0.,4.8,0.,4.8,0.,4.8
1986-01-26 12:21:36.390 ,5,0,9.,4.8,0.,4.8,0.,4.8,0.,4.8
1986-01-26 12:21:41.190 ,5,0,7.,4.8,0.,4.8,0.,4.8,0.,4.8
1986-01-26 12:21:45.990 ,5,0,2.,4.8,0.,4.8,0.,4.8,0.,4.8
1986-01-26 12:21:50.790 ,5,0,2.,4.8,0.,4.8,0.,4.8,0.,4.8
1986-01-26 12:21:55.590 ,5,0,5.,4.8,0.,4.8,0.,4.8,0.,4.8
1986-01-26 12:22:00.390 ,5,0,6.,4.8,0.,4.8,0.,4.8,0.,4.8
1986-01-26 12:22:05.190 ,5,0,6.,4.8,0.,4.8,0.,4.8,0.,4.8
1986-01-26 12:22:09.990 ,5,0,6.,4.8,0.,4.8,0.,4.8,0.,4.8
1986-01-26 12:22:14.790 ,5,0,8.,4.8,0.,4.8,0.,4.8,0.,4.8
1986-01-26 12:22:19.590 ,5,0,3.,4.8,0.,4.8,0.,4.8,0.,4.8
1986-01-26 12:22:24.390 ,4,0,2.,4.8,0.,4.8,0.,4.8,0.,4.8
1986-01-26 12:22:29.190 ,4,0,6.,4.8,0.,4.8,0.,4.8,0.,4.8
1986-01-26 12:22:33.990 ,4,0,6.,4.8,0.,4.8,0.,4.8,0.,4.8
1986-01-26 12:22:38.790 ,4,0,8.,4.8,0.,4.8,0.,4.8,0.,4.8
1986-01-26 12:22:43.590 ,4,0,6.,4.8,0.,4.8,0.,4.8,0.,4.8
1986-01-26 12:22:48.390 ,4,0,13.,4.8,0.,4.8,0.,4.8,0.,4.8
1986-01-26 12:22:53.190 ,4,0,4.,4.8,0.,4.8,0.,4.8,0.,4.8
1986-01-26 12:22:57.990 ,4,0,11.,4.8,0.,4.8,0.,4.8,0.,4.8
1986-01-26 12:23:02.790 ,4,0,9.,4.8,0.,4.8,0.,4.8,0.,4.8
1986-01-26 12:23:07.590 ,4,0,9.,4.8,0.,4.8,0.,4.8,0.,4.8
1986-01-26 12:23:12.390 ,3,0,4.,4.8,0.,4.8,0.,4.8,0.,4.8
1986-01-26 12:23:17.190 ,3,0,6.,4.8,0.,4.8,0.,4.8,0.,4.8
1986-01-26 12:23:21.990 ,3,0,10.,4.8,0.,4.8,0.,4.8,0.,4.8
1986-01-26 12:23:26.790 ,3,0,8.,4.8,0.,4.8,0.,4.8,0.,4.8
1986-01-26 12:23:31.590 ,3,0,5.,4.8,0.,4.8,0.,4.8,0.,4.8
1986-01-26 12:23:36.390 ,3,0,7.,4.8,0.,4.8,0.,4.8,0.,4.8
1986-01-26 12:23:41.190 ,3,0,10.,4.8,0.,4.8,0.,4.8,0.,4.8
1986-01-26 12:23:45.990 ,3,0,8.,4.8,0.,4.8,0.,4.8,0.,4.8
1986-01-26 12:23:50.790 ,3,0,8.,4.8,0.,4.8,0.,4.8,0.,4.8
1986-01-26 12:23:55.590 ,3,0,6.,4.8,0.,4.8,0.,4.8,0.,4.8
1986-01-26 12:24:00.390 ,2,0,6.,4.8,0.,4.8,0.,4.8,0.,4.8
1986-01-26 12:24:05.190 ,2,0,8.,4.8,0.,4.8,0.,4.8,0.,4.8
1986-01-26 12:24:09.990 ,2,0,6.,4.8,0.,4.8,0.,4.8,0.,4.8
1986-01-26 12:24:14.790 ,2,0,5.,4.8,0.,4.8,0.,4.8,0.,4.8
1986-01-26 12:24:19.590 ,2,0,4.,4.8,0.,4.8,0.,4.8,0.,4.8
1986-01-26 12:24:24.390 ,2,0,8.,4.8,0.,4.8,0.,4.8,0.,4.8
1986-01-26 12:24:29.190 ,2,0,3.,4.8,0.,4.8,0.,4.8,0.,4.8
1986-01-26 12:24:33.990 ,2,0,11.,4.8,0.,4.8,0.,4.8,0.,4.8
1986-01-26 12:24:38.790 ,2,0,6.,4.8,0.,4.8,0.,4.8,0.,4.8
1986-01-26 12:24:43.590 ,2,0,6.,4.8,0.,4.8,0.,4.8,0.,4.8
1986-01-26 12:24:48.390 ,1,0,4.,4.8,0.,4.8,0.,4.8,0.,4.8
1986-01-26 12:24:53.190 ,1,0,5.,4.8,0.,4.8,0.,4.8,0.,4.8
1986-01-26 12:24:57.990 ,1,0,5.,4.8,0.,4.8,0.,4.8,0.,4.8
1986-01-26 12:25:02.790 ,1,0,5.,4.8,0.,4.8,0.,4.8,0.,4.8
1986-01-26 12:25:07.590 ,1,0,11.,4.8,0.,4.8,0.,4.8,0.,4.8
1986-01-26 12:25:12.390 ,1,0,9.,4.8,0.,4.8,0.,4.8,0.,4.8
1986-01-26 12:25:17.190 ,1,0,8.,4.8,0.,4.8,0.,4.8,0.,4.8
1986-01-26 12:25:21.990 ,1,0,11.,4.8,0.,4.8,0.,4.8,0.,4.8
1986-01-26 12:25:26.790 ,1,0,13.,4.8,0.,4.8,0.,4.8,0.,4.8
1986-01-26 12:25:31.590 ,1,0,6.,4.8,0.,4.8,0.,4.8,0.,4.8
1986-01-26 12:25:36.390 ,0,0,1.,4.8,0.,4.8,0.,4.8,0.,4.8
1986-01-26 12:25:41.190 ,0,0,6.,4.8,0.,4.8,0.,4.8,0.,4.8
1986-01-26 12:25:45.990 ,0,0,7.,4.8,0.,4.8,0.,4.8,0.,4.8
1986-01-26 12:25:50.790 ,0,0,8.,4.8,0.,4.8,0.,4.8,0.,4.8
1986-01-26 12:25:55.590 ,0,0,4.,4.8,0.,4.8,0.,4.8,0.,4.8
1986-01-26 12:26:00.390 ,0,0,7.,4.8,0.,4.8,0.,4.8,0.,4.8
1986-01-26 12:26:05.190 ,0,0,7.,4.8,0.,4.8,0.,4.8,0.,4.8
1986-01-26 12:26:09.990 ,0,0,8.,4.8,0.,4.8,0.,4.8,0.,4.8
1986-01-26 12:26:14.790 ,0,0,5.,4.8,0.,4.8,0.,4.8,0.,4.8
1986-01-26 12:26:19.590 ,0,0,5.,4.8,0.,4.8,0.,4.8,0.,4.8
1986-01-26 12:26:24.390 ,0,0,7.,4.8,0.,4.8,0.,4.8,0.,4.8
1986-01-26 12:26:29.190 ,0,0,7.,4.8,0.,4.8,0.,4.8,0.,4.8
1986-01-26 12:26:33.990 ,0,0,7.,4.8,0.,4.8,0.,4.8,0.,4.8
1986-01-26 12:26:38.790 ,0,0,13.,4.8,0.,4.8,0.,4.8,0.,4.8
1986-01-26 12:26:43.590 ,0,0,8.,4.8,0.,4.8,0.,4.8,0.,4.8
1986-01-26 12:26:48.390 ,0,0,8.,4.8,0.,4.8,0.,4.8,0.,4.8
1986-01-26 12:26:53.190 ,0,0,12.,4.8,0.,4.8,0.,4.8,0.,4.8
1986-01-26 12:26:57.990 ,0,0,9.,4.8,0.,4.8,0.,4.8,0.,4.8
1986-01-26 12:27:02.790 ,0,0,7.,4.8,0.,4.8,0.,4.8,0.,4.8
1986-01-26 12:27:07.590 ,0,0,13.,4.8,0.,4.8,0.,4.8,0.,4.8
1986-01-26 12:27:12.390 ,1,0,3.,4.8,0.,4.8,0.,4.8,0.,4.8
1986-01-26 12:27:17.190 ,1,0,9.,4.8,0.,4.8,0.,4.8,0.,4.8
1986-01-26 12:27:21.990 ,1,0,7.,4.8,0.,4.8,0.,4.8,0.,4.8
1986-01-26 12:27:26.790 ,1,0,10.,4.8,0.,4.8,0.,4.8,0.,4.8
1986-01-26 12:27:31.590 ,1,0,11.,4.8,0.,4.8,0.,4.8,0.,4.8
1986-01-26 12:27:36.390 ,0,0,6.,4.8,0.,4.8,0.,4.8,0.,4.8
1986-01-26 12:27:41.190 ,0,0,11.,4.8,0.,4.8,0.,4.8,0.,4.8
1986-01-26 12:27:45.990 ,0,0,,0,,0,,0,,0
1986-01-26 12:27:50.790 ,0,0,,0,,0,,0,,0
1986-01-26 12:27:55.590 ,0,0,,0,,0,,0,,0
1986-01-26 12:27:47.190 ,0,0,,0,,0,,0,,0
1986-01-26 12:27:51.990 ,0,0,,0,,0,,0,,0
1986-01-26 12:27:56.790 ,0,0,,0,,0,,0,,0
1986-01-26 12:28:01.590 ,0,0,6.,4.8,0.,4.8,0.,4.8,0.,4.8
1986-01-26 12:28:06.390 ,0,0,11.,4.8,0.,4.8,0.,4.8,0.,4.8
1986-01-26 12:28:00.390 ,2,0,5.,4.8,0.,4.8,0.,4.8,0.,4.8
1986-01-26 12:28:05.190 ,2,0,9.,4.8,0.,4.8,0.,4.8,0.,4.8
1986-01-26 12:28:09.990 ,2,0,7.,4.8,0.,4.8,0.,4.8,0.,4.8
1986-01-26 12:28:14.790 ,2,0,6.,4.8,0.,4.8,0.,4.8,0.,4.8
1986-01-26 12:28:19.590 ,2,0,9.,4.8,0.,4.8,0.,4.8,0.,4.8
1986-01-26 12:28:24.390 ,2,0,7.,4.8,0.,4.8,0.,4.8,0.,4.8
1986-01-26 12:28:29.190 ,2,0,7.,4.8,0.,4.8,0.,4.8,0.,4.8
1986-01-26 12:28:33.990 ,2,0,3.,4.8,0.,4.8,0.,4.8,0.,4.8
1986-01-26 12:28:38.790 ,2,0,6.,4.8,0.,4.8,0.,4.8,0.,4.8
1986-01-26 12:28:43.590 ,2,0,7.,4.8,0.,4.8,0.,4.8,0.,4.8
1986-01-26 12:28:48.390 ,3,0,8.,4.8,0.,4.8,0.,4.8,0.,4.8
1986-01-26 12:28:53.190 ,3,0,13.,4.8,0.,4.8,0.,4.8,0.,4.8
1986-01-26 12:28:57.990 ,3,0,8.,4.8,0.,4.8,0.,4.8,0.,4.8
1986-01-26 12:29:02.790 ,3,0,11.,4.8,0.,4.8,0.,4.8,0.,4.8
1986-01-26 12:29:07.590 ,3,0,6.,4.8,0.,4.8,0.,4.8,0.,4.8
1986-01-26 12:29:12.390 ,3,0,10.,4.8,0.,4.8,0.,4.8,0.,4.8
1986-01-26 12:29:17.190 ,3,0,4.,4.8,0.,4.8,0.,4.8,0.,4.8
1986-01-26 12:29:21.990 ,3,0,8.,4.8,0.,4.8,0.,4.8,0.,4.8
1986-01-26 12:29:26.790 ,3,0,5.,4.8,0.,4.8,0.,4.8,0.,4.8
1986-01-26 12:29:31.590 ,3,0,7.,4.8,0.,4.8,0.,4.8,0.,4.8
1986-01-26 12:29:36.390 ,4,0,10.,4.8,0.,4.8,0.,4.8,0.,4.8
1986-01-26 12:29:41.190 ,4,0,4.,4.8,0.,4.8,0.,4.8,0.,4.8
1986-01-26 12:29:45.990 ,4,0,6.,4.8,0.,4.8,0.,4.8,0.,4.8
1986-01-26 12:29:50.790 ,4,0,8.,4.8,0.,4.8,0.,4.8,0.,4.8
1986-01-26 12:29:55.590 ,4,0,6.,4.8,0.,4.8,0.,4.8,0.,4.8
1986-01-26 12:30:00.390 ,4,0,7.,4.8,0.,4.8,0.,4.8,0.,4.8
1986-01-26 12:30:05.190 ,4,0,3.,4.8,0.,4.8,0.,4.8,0.,4.8
1986-01-26 12:30:09.990 ,4,0,6.,4.8,0.,4.8,0.,4.8,0.,4.8
1986-01-26 12:30:14.790 ,4,0,7.,4.8,0.,4.8,0.,4.8,0.,4.8
1986-01-26 12:30:19.590 ,4,0,6.,4.8,0.,4.8,0.,4.8,0.,4.8
1986-01-26 12:30:24.390 ,5,0,9.,4.8,0.,4.8,0.,4.8,0.,4.8
1986-01-26 12:30:29.190 ,5,0,5.,4.8,0.,4.8,0.,4.8,0.,4.8
1986-01-26 12:30:33.990 ,5,0,9.,4.8,0.,4.8,0.,4.8,0.,4.8
1986-01-26 12:30:38.790 ,5,0,4.,4.8,0.,4.8,0.,4.8,0.,4.8
1986-01-26 12:30:43.590 ,5,0,5.,4.8,0.,4.8,0.,4.8,0.,4.8
1986-01-26 12:30:48.390 ,5,0,4.,4.8,0.,4.8,0.,4.8,0.,4.8
1986-01-26 12:30:53.190 ,5,0,13.,4.8,0.,4.8,0.,4.8,0.,4.8
1986-01-26 12:30:57.990 ,5,0,8.,4.8,0.,4.8,0.,4.8,0.,4.8
1986-01-26 12:31:02.790 ,5,0,8.,4.8,0.,4.8,0.,4.8,0.,4.8
1986-01-26 12:31:07.590 ,5,0,6.,4.8,0.,4.8,0.,4.8,0.,4.8
1986-01-26 12:31:12.390 ,6,0,11.,4.8,0.,4.8,0.,4.8,0.,4.8
1986-01-26 12:31:17.190 ,6,0,7.,4.8,0.,4.8,0.,4.8,0.,4.8
1986-01-26 12:31:21.990 ,6,0,6.,4.8,0.,4.8,0.,4.8,0.,4.8
1986-01-26 12:31:26.790 ,6,0,10.,4.8,0.,4.8,0.,4.8,0.,4.8
1986-01-26 12:31:31.590 ,6,0,6.,4.8,0.,4.8,0.,4.8,0.,4.8
1986-01-26 12:31:36.390 ,6,0,7.,4.8,0.,4.8,0.,4.8,0.,4.8
1986-01-26 12:31:41.190 ,6,0,7.,4.8,0.,4.8,0.,4.8,0.,4.8
1986-01-26 12:31:45.990 ,6,0,10.,4.8,0.,4.8,0.,4.8,0.,4.8
1986-01-26 12:31:50.790 ,6,0,4.,4.8,0.,4.8,0.,4.8,0.,4.8
1986-01-26 12:31:55.590 ,6,0,9.,4.8,0.,4.8,0.,4.8,0.,4.8
1986-01-26 12:32:00.390 ,7,0,9.,4.8,0.,4.8,0.,4.8,0.,4.8
1986-01-26 12:32:05.190 ,7,0,11.,4.8,0.,4.8,0.,4.8,0.,4.8
1986-01-26 12:32:09.990 ,7,0,12.,4.8,0.,4.8,0.,4.8,0.,4.8
1986-01-26 12:32:14.790 ,7,0,6.,4.8,0.,4.8,0.,4.8,0.,4.8
1986-01-26 12:32:19.590 ,7,0,5.,4.8,0.,4.8,0.,4.8,0.,4.8
1986-01-26 12:32:24.390 ,7,0,5.,4.8,0.,4.8,0.,4.8,0.,4.8
1986-01-26 12:32:29.190 ,7,0,11.,4.8,0.,4.8,0.,4.8,0.,4.8
1986-01-26 12:32:33.990 ,7,0,13.,4.8,0.,4.8,0.,4.8,0.,4.8
1986-01-26 12:32:38.790 ,7,0,10.,4.8,0.,4.8,0.,4.8,0.,4.8
1986-01-26 12:32:43.590 ,7,0,7.,4.8,0.,4.8,0.,4.8,0.,4.8
1986-01-26 12:32:48.390 ,7,0,8.,4.8,0.,4.8,0.,4.8,0.,4.8
1986-01-26 12:32:53.190 ,7,0,11.,4.8,0.,4.8,0.,4.8,0.,4.8
1986-01-26 12:32:57.990 ,7,0,6.,4.8,0.,4.8,0.,4.8,0.,4.8
1986-01-26 12:33:02.790 ,7,0,7.,4.8,0.,4.8,0.,4.8,0.,4.8
1986-01-26 12:33:07.590 ,7,0,7.,4.8,0.,4.8,0.,4.8,0.,4.8
1986-01-26 12:33:12.390 ,7,0,6.,4.8,0.,4.8,0.,4.8,0.,4.8
1986-01-26 12:33:17.190 ,7,0,12.,4.8,0.,4.8,0.,4.8,0.,4.8
1986-01-26 12:33:21.990 ,7,0,7.,4.8,0.,4.8,0.,4.8,0.,4.8
1986-01-26 12:33:26.790 ,7,0,8.,4.8,0.,4.8,0.,4.8,0.,4.8
1986-01-26 12:33:31.590 ,7,0,9.,4.8,0.,4.8,0.,4.8,0.,4.8
1986-01-26 12:33:36.390 ,6,0,5.,4.8,0.,4.8,0.,4.8,0.,4.8
1986-01-26 12:33:41.190 ,6,0,8.,4.8,0.,4.8,0.,4.8,0.,4.8
1986-01-26 12:33:45.990 ,6,0,10.,4.8,0.,4.8,0.,4.8,0.,4.8
1986-01-26 12:33:50.790 ,6,0,3.,4.8,0.,4.8,0.,4.8,0.,4.8
1986-01-26 12:33:55.590 ,6,0,10.,4.8,0.,4.8,0.,4.8,0.,4.8
1986-01-26 12:34:00.390 ,6,0,7.,4.8,0.,4.8,0.,4.8,0.,4.8
1986-01-26 12:34:05.190 ,6,0,8.,4.8,0.,4.8,0.,4.8,0.,4.8
1986-01-26 12:34:09.990 ,6,0,7.,4.8,0.,4.8,0.,4.8,0.,4.8
1986-01-26 12:34:14.790 ,6,0,7.,4.8,0.,4.8,0.,4.8,0.,4.8